DW4758 Weather Reports


Display with metric or nautical units.
time (UTC)temp
F
wind
direction
speed
MPH
gust
MPH
rain 1hr
in
rain 24hr
in
rain mn
in
humidity
%
barometer
mb
20260509090328 56 271 0.0 0.0 0.05 0.79 0.39 82 1007.0
20260509084822 56 319 0.0 5.0 0.06 0.79 0.39 82 1007.2
20260509083316 56 217 9.0 11.0 0.06 0.78 0.38 82 1007.5
20260509081832 57 213 6.0 9.0 0.04 0.76 0.36 82 1007.4
20260509080329 57 232 8.0 12.0 0.02 0.74 0.34 82 1007.3
20260509074826 57 221 7.0 15.0 0.02 0.73 0.33 82 1007.4
20260509073323 57 209 5.0 10.0 0.01 0.72 0.32 82 1007.5
20260509071815 57 202 5.0 8.0 0.01 0.72 0.32 82 1007.4
20260509070315 57 210 2.0 8.0 0.01 0.72 0.32 82 1007.8
20260509064829 57 198 0.0 0.0 0.01 0.71 0.31 82 1008.0
20260509063328 57 200 0.0 0.0 0.04 0.71 0.31 82 1008.2
20260509061840 57 202 0.0 0.0 0.09 0.71 0.31 82 1008.2
20260509060317 57 202 0.0 0.0 0.13 0.71 0.31 82 1008.2
20260509054832 57 228 2.0 10.0 0.17 0.70 0.30 82 1008.7
20260509053328 57 215 0.0 6.0 0.18 0.67 0.27 82 1008.9
20260509051826 57 207 2.0 7.0 0.18 0.62 0.22 82 1009.2
20260509050322 57 217 0.0 6.0 0.17 0.58 0.18 82 1009.2
20260509044820 57 190 0.0 0.0 0.14 0.52 0.12 82 1009.1
20260509043316 57 190 0.0 7.0 0.11 0.49 0.09 82 1009.0
20260509041830 57 194 0.0 8.0 0.08 0.44 0.04 82 1009.0
20260509040326 57 163 0.0 6.0 0.08 0.41 0.01 82 1009.0
20260509034823 57 198 0.0 1.0 0.05 0.38 0.38 82 1009.0
20260509033317 57 146 0.0 2.0 0.05 0.38 0.38 82 1009.1
20260509031815 57 172 0.0 0.0 0.03 0.36 0.36 82 1009.3
20260509030331 57 190 0.0 0.0 0.01 0.33 0.33 81 1009.1
20260509024826 57 161 0.0 0.0 0.03 0.33 0.33 81 1009.2
20260509023326 57 199 0.0 0.0 0.08 0.33 0.33 81 1009.4
20260509021816 57 180 0.0 0.0 0.13 0.33 0.33 81 1009.2
20260509020317 57 207 0.0 0.0 0.14 0.32 0.32 81 1009.3
20260509014829 57 235 1.0 7.0 0.13 0.30 0.30 81 1009.4
20260509013327 57 205 0.0 8.0 0.08 0.25 0.25 81 1009.4
20260509011818 57 171 0.0 1.0 0.05 0.20 0.20 80 1009.2
20260509010316 58 223 0.0 0.0 0.03 0.18 0.18 80 1009.1
20260509004848 58 234 0.0 0.0 0.03 0.17 0.17 80 1009.3
20260509003321 58 238 0.0 3.0 0.05 0.17 0.17 80 1009.3
20260509001817 58 257 0.0 0.0 0.05 0.15 0.15 80 1008.9
20260509000333 57 259 0.0 0.0 0.07 0.15 0.15 80 1009.0
20260508234830 57 310 0.0 0.0 0.07 0.14 0.14 80 1009.5
20260508233323 58 355 0.0 0.0 0.07 0.12 0.12 80 1009.5
20260508231819 58 5 0.0 0.0 0.05 0.10 0.10 79 1009.4
20260508230314 58 333 0.0 0.0 0.04 0.08 0.08 79 1009.6
20260508224829 58 333 0.0 0.0 0.04 0.07 0.07 78 1009.7
20260508223328 59 333 0.0 0.0 0.04 0.05 0.05 77 1009.6
20260508221818 59 333 0.0 0.0 0.04 0.04 0.04 75 1009.0
20260508220338 59 336 0.0 3.0 0.04 0.04 0.04 73 1009.2
20260508214851 60 313 1.0 12.0 0.03 0.03 0.03 69 1009.5
20260508213327 63 300 0.0 15.0 0.01 0.01 0.01 61 1009.2
20260508211825 64 250 0.0 8.0 0.00 0.00 0.00 57 1009.0
20260508210339 64 231 0.0 8.0 0.00 0.00 0.00 58 1008.8
20260508204816 64 246 2.0 17.0 0.00 0.00 0.00 54 1008.9
20260508203352 66 236 12.0 20.0 0.00 0.00 0.00 45 1009.0
20260508201827 67 200 7.0 14.0 0.00 0.00 0.00 46 1009.0
20260508200321 67 228 4.0 14.0 0.00 0.00 0.00 44 1009.1
20260508194833 67 202 6.0 16.0 0.00 0.00 0.00 43 1009.1
20260508193331 67 243 11.0 15.0 0.00 0.00 0.00 45 1009.5
20260508191820 67 218 5.0 13.0 0.00 0.00 0.00 46 1009.6
20260508190318 67 240 7.0 16.0 0.00 0.00 0.00 46 1009.9
20260508184850 67 232 11.0 16.0 0.00 0.00 0.00 45 1010.1
20260508183327 67 214 8.0 12.0 0.00 0.00 0.00 45 1010.3
20260508181821 66 218 6.0 16.0 0.00 0.00 0.00 48 1010.4
20260508180354 66 231 11.0 19.0 0.00 0.00 0.00 48 1010.7
20260508174828 66 236 11.0 19.0 0.00 0.00 0.00 44 1010.8
20260508173323 67 232 9.0 16.0 0.00 0.00 0.00 47 1011.1
20260508171821 66 219 12.0 17.0 0.00 0.00 0.00 47 1011.2
20260508170318 64 223 14.0 20.0 0.00 0.00 0.00 47 1011.5
20260508164816 64 232 14.0 18.0 0.00 0.00 0.00 45 1011.8
20260508163332 64 188 11.0 17.0 0.00 0.00 0.00 49 1012.0
20260508161824 63 244 9.0 17.0 0.00 0.00 0.00 50 1012.4
20260508160325 63 231 12.0 16.0 0.00 0.00 0.00 48 1012.3
20260508154820 63 248 16.0 22.0 0.00 0.00 0.00 48 1012.5
20260508153321 63 222 12.0 23.0 0.00 0.00 0.00 49 1012.5
20260508151832 64 229 9.0 15.0 0.00 0.00 0.00 48 1012.5
20260508150330 63 238 10.0 18.0 0.00 0.00 0.00 48 1012.4
20260508144845 62 204 11.0 20.0 0.00 0.00 0.00 50 1012.6
20260508143320 62 225 12.0 20.0 0.00 0.00 0.00 49 1013.0
20260508141831 62 228 12.0 20.0 0.00 0.00 0.00 50 1013.0
20260508140325 61 246 12.0 21.0 0.00 0.00 0.00 52 1013.2
20260508134841 60 213 13.0 18.0 0.00 0.00 0.00 50 1013.1
20260508133316 59 232 13.0 20.0 0.00 0.00 0.00 49 1013.1
20260508131830 59 226 14.0 20.0 0.00 0.00 0.00 50 1013.3
20260508130325 58 242 13.0 21.0 0.00 0.00 0.00 49 1013.4
20260508124824 57 249 5.0 19.0 0.00 0.00 0.00 52 1013.4
20260508123340 56 227 7.0 15.0 0.00 0.00 0.00 52 1013.2
20260508121831 55 209 4.0 14.0 0.00 0.00 0.00 54 1013.3
20260508120349 54 197 8.0 15.0 0.00 0.00 0.00 54 1013.2
20260508114840 53 218 0.0 9.0 0.00 0.00 0.00 55 1013.2
20260508113317 52 216 0.0 5.0 0.00 0.00 0.00 56 1013.0
20260508111832 51 213 0.0 5.0 0.00 0.00 0.00 56 1013.0
20260508110328 51 188 1.0 4.0 0.00 0.00 0.00 57 1013.0
20260508104827 50 209 0.0 0.0 0.00 0.00 0.00 56 1012.9
20260508103322 51 215 0.0 1.0 0.00 0.00 0.00 54 1013.0
20260508101817 51 211 2.0 9.0 0.00 0.00 0.00 53 1012.9
20260508100331 52 202 3.0 9.0 0.00 0.00 0.00 52 1012.8
20260508094830 51 211 0.0 2.0 0.00 0.00 0.00 53 1012.8
20260508093345 52 224 0.0 1.0 0.00 0.00 0.00 52 1012.9
20260508091818 52 207 0.0 9.0 0.00 0.00 0.00 52 1012.9